Regional Weather Roundup
Issued by NWS

Home | Current Version | Previous Version | Graphics & Text | Print | Product List | Glossary On
Versions: 1 2 3 4 5 6 7 8 9 10 11 12 13 14 15 16 17 18 19 20 21 22 23 24 25 26 27 28 29 30 31 32 33 34 35 36 37 38 39 40 41 42 43 44 45 46 47 48 49 50
000
ASUS45 KCYS 271210
RWRWY

WYOMING REGIONAL WEATHER ROUNDUP
NATIONAL WEATHER SERVICE CHEYENNE WY
600 AM MDT FRI MAR 27 2015

NOTE:  "FAIR" INDICATES FEW OR NO CLOUDS BELOW 12,000 FEET
WITH NO SIGNIFICANT WEATHER AND/OR OBSTRUCTIONS TO VISIBILITY.

WYZ001-271300-
YELLOWSTONE NATIONAL PARK

CITY           SKY/WX    TMP DP  RH WIND       PRES   REMARKS
LK YELLOWSTONE   N/A     22  19  89 CALM      30.37S
6HR MIN TEMP:  22; 6HR MAX TEMP:  29;

W YELLOWSTONE  NOT AVBL

$$
WYZ002>013-054>058-071-098>099-271300-
NORTHERN WYOMING

CITY           SKY/WX    TMP DP  RH WIND       PRES   REMARKS
JACKSON        FAIR      28  27  93 N9        30.34S WCI  20
CODY           FAIR      54  28  37 W10G21    30.15R
GREYBULL       FAIR      36  30  79 S3        30.14S
6HR MIN TEMP:  36; 6HR MAX TEMP:  50;

WORLAND        FAIR      36  29  75 SW10      30.14S WCI  28
6HR MIN TEMP:  35; 6HR MAX TEMP:  45;

SHERIDAN       CLOUDY    49  34  56 NW5       30.11S
6HR MIN TEMP:  44; 6HR MAX TEMP:  51;

BUFFALO        FAIR      45  34  65 VRB3      30.13R
6HR MIN TEMP:  40; 6HR MAX TEMP:  48;

GILLETTE       CLOUDY    45  38  76 W14       30.09R
6HR MIN TEMP:  41; 6HR MAX TEMP:  46; 6HR PCP:  0.04;

HULETT         PTSUNNY   43  37  81 SW9       30.08R
NEWCASTLE      PTSUNNY   36  36 100 NW3       30.10S

$$
WYZ014>020-022>026-101>103-271300-
CENTRAL WYOMING

CITY           SKY/WX    TMP DP  RH WIND       PRES   REMARKS
BIG PINEY      FAIR      30  25  81 E7        30.31F WCI  23
6HR MIN TEMP:  29; 6HR MAX TEMP:  34;

PINEDALE       FAIR      32  28  86 NW9       30.32S WCI  24
DUBOIS         FAIR      37  28  70 W21G26    30.28F WCI  27
LANDER         FAIR      39  24  55 NW13      30.18R WCI  31
6HR MIN TEMP:  36; 6HR MAX TEMP:  46;

RIVERTON       FAIR      46  30  53 W17       30.19R
6HR MIN TEMP:  45; 6HR MAX TEMP:  50;

CASPER         FAIR      44  29  55 W13       30.17R
6HR MIN TEMP:  38; 6HR MAX TEMP:  48;

DOUGLAS        MOCLDY    46  31  55 NW10      30.14S
6HR MIN TEMP:  43; 6HR MAX TEMP:  50;


$$
WYZ021-027>030-104>119-271300-
SOUTHERN WYOMING

CITY           SKY/WX    TMP DP  RH WIND       PRES   REMARKS
EVANSTON       FAIR      34  25  69 S8        30.36F WCI  27
6HR MIN TEMP:  33; 6HR MAX TEMP:  41;

KEMMERER       FAIR      32  28  86 W12       30.35F WCI  23
FORT BRIDGER   FAIR      38  28  65 SW12      30.37F WCI  31
ROCK SPRINGS   FAIR      38  28  67 W15       30.31R WCI  29
6HR MIN TEMP:  37; 6HR MAX TEMP:  40;

DIXON          FAIR      28  25  91 CALM      30.35R
RAWLINS        FAIR      35  27  72 SW6       30.28R WCI  30
6HR MIN TEMP:  33; 6HR MAX TEMP:  39;

SARATOGA       FAIR      32  27  80 MISG      30.28S
LARAMIE        FAIR      33  26  75 W9        30.22S WCI  25
6HR MIN TEMP:  32; 6HR MAX TEMP:  39;

CHEYENNE       CLOUDY    47  28  47 NW15      30.15S
6HR MIN TEMP:  41; 6HR MAX TEMP:  49;

TORRINGTON     CLOUDY    37  31  78 S5        30.14S WCI  33
6HR MIN TEMP:  37; 6HR MAX TEMP:  40; 6HR PCP: TRACE;

PINE BLUFFS    CLOUDY    39  32  75 CALM      30.15S

$$


USA.gov is the U.S. government's official web portal to all federal, state and local government web resources and services.